TimeCDT,TemperatureF,Dew PointF,Humidity,Sea Level PressureIn,VisibilityMPH,Wind Direction,Wind SpeedMPH,Gust SpeedMPH,PrecipitationIn,Events,Conditions,WindDirDegrees,DateUTC
12:15 AM,37.4,30.2,75,30.42,10.0,NE,6.9,-,N/A,,Clear,50,2013-10-14 05:15:00
12:35 AM,39.2,30.2,70,30.42,10.0,NE,6.9,-,N/A,,Clear,50,2013-10-14 05:35:00
12:55 AM,37.4,30.2,75,30.42,10.0,ENE,5.8,-,N/A,,Clear,60,2013-10-14 05:55:00
1:15 AM,37.4,30.2,75,30.42,10.0,ENE,5.8,-,N/A,,Clear,60,2013-10-14 06:15:00
1:35 AM,37.4,30.2,75,30.43,10.0,NE,6.9,-,N/A,,Clear,50,2013-10-14 06:35:00
1:55 AM,35.6,28.4,75,30.42,10.0,ENE,6.9,-,N/A,,Clear,60,2013-10-14 06:55:00
2:15 AM,35.6,30.2,81,30.42,10.0,ENE,5.8,-,N/A,,Clear,60,2013-10-14 07:15:00
2:35 AM,35.6,30.2,81,30.42,10.0,ENE,6.9,-,N/A,,Clear,60,2013-10-14 07:35:00
2:55 AM,35.6,30.2,81,30.42,10.0,ENE,5.8,-,N/A,,Clear,60,2013-10-14 07:55:00
3:15 AM,35.6,32.0,87,30.42,10.0,ENE,5.8,-,N/A,,Clear,60,2013-10-14 08:15:00
3:35 AM,35.6,32.0,87,30.41,10.0,ENE,6.9,-,N/A,,Clear,60,2013-10-14 08:35:00
3:55 AM,35.6,32.0,87,30.41,10.0,ENE,6.9,-,N/A,,Clear,60,2013-10-14 08:55:00
4:15 AM,35.6,32.0,87,30.41,10.0,ENE,8.1,-,N/A,,Clear,70,2013-10-14 09:15:00
4:35 AM,35.6,33.8,93,30.41,10.0,ENE,8.1,-,N/A,,Clear,70,2013-10-14 09:35:00
4:55 AM,35.6,33.8,93,30.41,10.0,ENE,8.1,-,N/A,,Clear,70,2013-10-14 09:55:00
5:15 AM,35.6,32.0,87,30.41,10.0,ENE,6.9,-,N/A,,Clear,70,2013-10-14 10:15:00
5:35 AM,35.6,32.0,87,30.41,10.0,ENE,6.9,-,N/A,,Clear,70,2013-10-14 10:35:00
5:55 AM,35.6,32.0,87,30.41,10.0,ENE,6.9,-,N/A,,Clear,70,2013-10-14 10:55:00
6:15 AM,35.6,30.2,81,30.42,10.0,ENE,6.9,-,N/A,,Clear,70,2013-10-14 11:15:00
6:35 AM,35.6,30.2,81,30.42,10.0,ENE,5.8,-,N/A,,Clear,70,2013-10-14 11:35:00
6:55 AM,35.6,30.2,81,30.42,10.0,ENE,5.8,-,N/A,,Clear,70,2013-10-14 11:55:00
7:15 AM,33.8,28.4,81,30.41,10.0,ENE,6.9,-,N/A,,Clear,70,2013-10-14 12:15:00
7:35 AM,35.6,30.2,81,30.41,10.0,East,5.8,-,N/A,,Clear,80,2013-10-14 12:35:00
7:55 AM,35.6,30.2,81,30.41,10.0,ENE,4.6,-,N/A,,Clear,70,2013-10-14 12:55:00
8:15 AM,37.4,33.8,87,30.40,10.0,ENE,6.9,-,N/A,,Clear,70,2013-10-14 13:15:00
8:35 AM,39.2,37.4,93,30.41,6.0,East,5.8,-,N/A,,Clear,80,2013-10-14 13:35:00
8:55 AM,42.8,39.2,87,30.40,10.0,East,5.8,-,N/A,,Clear,80,2013-10-14 13:55:00
9:15 AM,46.4,41.0,81,30.41,8.0,East,5.8,-,N/A,,Clear,80,2013-10-14 14:15:00
9:35 AM,48.2,42.8,82,30.40,9.0,ESE,6.9,-,N/A,,Clear,120,2013-10-14 14:35:00
9:55 AM,51.8,42.8,71,30.40,10.0,ESE,5.8,-,N/A,,Clear,120,2013-10-14 14:55:00
10:15 AM,53.6,42.8,67,30.40,10.0,ESE,8.1,-,N/A,,Clear,110,2013-10-14 15:15:00
10:35 AM,55.4,42.8,63,30.39,10.0,ESE,10.4,-,N/A,,Clear,110,2013-10-14 15:35:00
10:55 AM,55.4,42.8,63,30.38,10.0,ESE,12.7,-,N/A,,Clear,120,2013-10-14 15:55:00
11:15 AM,57.2,42.8,59,30.37,10.0,ESE,15.0,20.7,N/A,,Clear,120,2013-10-14 16:15:00
11:35 AM,57.2,42.8,59,30.36,10.0,ESE,13.8,19.6,N/A,,Clear,120,2013-10-14 16:35:00
11:55 AM,59.0,42.8,55,30.34,10.0,SE,17.3,21.9,N/A,,Clear,140,2013-10-14 16:55:00
12:15 PM,60.8,42.8,52,30.33,10.0,ESE,15.0,19.6,N/A,,Clear,120,2013-10-14 17:15:00
12:35 PM,60.8,42.8,52,30.32,10.0,ESE,16.1,19.6,N/A,,Clear,110,2013-10-14 17:35:00
12:55 PM,60.8,42.8,52,30.30,10.0,ESE,15.0,21.9,N/A,,Clear,110,2013-10-14 17:55:00
1:15 PM,60.8,42.8,52,30.29,10.0,East,19.6,-,N/A,,Clear,100,2013-10-14 18:15:00
1:35 PM,62.6,41.0,45,30.28,10.0,East,13.8,-,N/A,,Clear,100,2013-10-14 18:35:00
1:55 PM,62.6,41.0,45,30.27,10.0,ESE,13.8,20.7,N/A,,Clear,120,2013-10-14 18:55:00
2:15 PM,62.6,42.8,48,30.26,10.0,ESE,15.0,20.7,N/A,,Clear,110,2013-10-14 19:15:00
2:35 PM,62.6,41.0,45,30.25,10.0,ESE,15.0,20.7,N/A,,Clear,110,2013-10-14 19:35:00
2:55 PM,62.6,41.0,45,30.23,10.0,SE,16.1,19.6,N/A,,Clear,140,2013-10-14 19:55:00
3:15 PM,62.6,41.0,45,30.22,10.0,ESE,15.0,21.9,N/A,,Clear,110,2013-10-14 20:15:00
3:35 PM,62.6,41.0,45,30.21,10.0,ESE,16.1,-,N/A,,Clear,120,2013-10-14 20:35:00
3:55 PM,64.4,39.2,40,30.21,10.0,ESE,16.1,24.2,N/A,,Clear,120,2013-10-14 20:55:00
4:15 PM,62.6,39.2,42,30.19,10.0,ESE,17.3,-,N/A,,Clear,120,2013-10-14 21:15:00
4:35 PM,62.6,39.2,42,30.19,10.0,SE,17.3,21.9,N/A,,Clear,130,2013-10-14 21:35:00
4:55 PM,62.6,37.4,39,30.19,10.0,SE,16.1,-,N/A,,Clear,130,2013-10-14 21:55:00
5:15 PM,62.6,39.2,42,30.18,10.0,SE,13.8,18.4,N/A,,Clear,140,2013-10-14 22:15:00
5:35 PM,60.8,39.2,45,30.18,10.0,SE,15.0,-,N/A,,Clear,130,2013-10-14 22:35:00
5:55 PM,60.8,39.2,45,30.18,10.0,ESE,10.4,-,N/A,,Clear,120,2013-10-14 22:55:00
6:15 PM,57.2,37.4,48,30.17,10.0,ESE,9.2,-,N/A,,Clear,110,2013-10-14 23:15:00
6:35 PM,55.4,37.4,51,30.16,10.0,ESE,9.2,-,N/A,,Clear,110,2013-10-14 23:35:00
6:55 PM,55.4,37.4,51,30.16,10.0,ESE,9.2,-,N/A,,Clear,110,2013-10-14 23:55:00
7:15 PM,53.6,37.4,54,30.15,10.0,ESE,11.5,-,N/A,,Clear,110,2013-10-15 00:15:00
7:35 PM,55.4,37.4,51,30.14,10.0,ESE,12.7,-,N/A,,Clear,110,2013-10-15 00:35:00
7:55 PM,55.4,37.4,51,30.14,10.0,ESE,10.4,-,N/A,,Clear,110,2013-10-15 00:55:00
8:15 PM,53.6,37.4,54,30.14,10.0,ESE,12.7,-,N/A,,Clear,110,2013-10-15 01:15:00
8:35 PM,53.6,37.4,54,30.13,10.0,ESE,15.0,-,N/A,,Clear,110,2013-10-15 01:35:00
8:55 PM,53.6,37.4,54,30.14,10.0,ESE,11.5,-,N/A,,Clear,110,2013-10-15 01:55:00
9:15 PM,53.6,37.4,54,30.14,10.0,ESE,11.5,-,N/A,,Clear,120,2013-10-15 02:15:00
9:35 PM,51.8,39.2,62,30.14,10.0,ESE,12.7,-,N/A,,Clear,110,2013-10-15 02:35:00
9:55 PM,51.8,41.0,67,30.12,10.0,ESE,15.0,-,N/A,,Clear,110,2013-10-15 02:55:00
10:15 PM,51.8,41.0,67,30.12,10.0,ESE,17.3,-,N/A,,Clear,110,2013-10-15 03:15:00
10:35 PM,51.8,42.8,71,30.10,10.0,ESE,17.3,20.7,N/A,,Clear,110,2013-10-15 03:35:00
10:55 PM,51.8,42.8,71,30.10,10.0,ESE,13.8,21.9,N/A,,Clear,120,2013-10-15 03:55:00
11:15 PM,51.8,42.8,71,30.10,10.0,ESE,13.8,-,N/A,,Clear,110,2013-10-15 04:15:00
11:35 PM,51.8,42.8,71,30.09,10.0,ESE,12.7,-,N/A,,Clear,120,2013-10-15 04:35:00
11:55 PM,51.8,42.8,71,30.08,10.0,ESE,13.8,-,N/A,,Clear,120,2013-10-15 04:55:00